CW0262 Weather Reports


Display with metric or nautical units.
time (UTC)temp
F
wind
direction
speed
MPH
gust
MPH
rain 1hr
in
rain 24hr
in
rain mn
in
humidity
%
barometer
mb
20260901041704 80 320 1.0 3.0 0.00 0.16 0.00 100 1015.9
20260901041205 80 312 2.0 3.0 0.00 0.16 0.00 100 1015.9
20260901040704 80 304 0.0 2.0 0.00 0.16 0.00 100 1015.9
20260901040204 80 287 1.0 3.0 0.00 0.16 0.00 100 1015.9
20260901034705 80 70 0.0 0.0 0.00 0.16 0.16 100 1015.9
20260901033703 80 69 0.0 0.0 0.00 0.16 0.16 100 1015.9
20260901033204 80 70 0.0 0.0 0.00 0.16 0.16 100 1015.9
20260901031204 81 70 0.0 0.0 0.00 0.16 0.16 100 1015.9
20260901030704 81 69 0.0 0.0 0.00 0.16 0.16 100 1015.9
20260901030204 81 70 0.0 0.0 0.00 0.16 0.16 100 1015.9
20260901024704 81 69 0.0 0.0 0.00 0.16 0.16 100 1015.9
20260901024204 81 70 0.0 0.0 0.00 0.16 0.16 100 1015.9
20260901023704 81 70 0.0 0.0 0.00 0.16 0.16 100 1015.9
20260901023204 81 69 0.0 0.0 0.00 0.16 0.16 99 1015.9
20260901021704 81 70 0.0 0.0 0.00 0.16 0.16 99 1015.9
20260901021204 81 70 0.0 0.0 0.00 0.16 0.16 99 1015.9
20260901020703 81 69 0.0 0.0 0.00 0.16 0.16 99 1015.9
20260901020204 81 69 0.0 0.0 0.00 0.16 0.16 99 1015.9
20260901014704 81 70 0.0 2.0 0.00 0.16 0.16 99 1015.9
20260901014203 81 69 2.0 3.0 0.00 0.16 0.16 99 1015.9
20260901013703 82 71 2.0 3.0 0.00 0.16 0.16 99 1015.9
20260901013204 82 93 3.0 6.0 0.00 0.16 0.16 99 1014.9
20260901011203 82 66 0.0 3.0 0.00 0.16 0.16 100 1014.9
20260901010704 82 55 1.0 3.0 0.00 0.16 0.16 100 1014.9
20260901010203 82 62 0.0 3.0 0.00 0.16 0.16 100 1014.9
20260901003704 82 38 0.0 3.0 0.00 0.16 0.16 98 1014.9
20260901003204 82 39 2.0 3.0 0.00 0.16 0.16 98 1014.9
20260901001204 83 51 0.0 3.0 0.00 0.16 0.16 97 1014.9
20260901000204 83 69 3.0 5.0 0.00 0.16 0.16 97 1014.9
20260831234704 83 36 3.0 3.0 0.00 0.16 0.16 96 1014.9
20260831234203 83 52 0.0 2.0 0.00 0.16 0.16 97 1014.9
20260831233704 83 51 1.0 2.0 0.00 0.16 0.16 96 1014.9
20260831233204 83 54 1.0 6.0 0.00 0.16 0.16 96 1014.9
20260831231704 84 48 3.0 3.0 0.00 0.16 0.16 95 1014.9
20260831231204 84 57 1.0 3.0 0.00 0.16 0.16 94 1014.9
20260831230204 84 49 3.0 8.0 0.00 0.16 0.16 94 1014.9
20260831224703 84 47 5.0 8.0 0.00 0.16 0.16 94 1014.9
20260831224204 84 61 6.0 9.0 0.00 0.16 0.16 93 1014.9
20260831223703 84 65 5.0 8.0 0.00 0.16 0.16 92 1014.9
20260831223204 84 68 3.0 8.0 0.00 0.16 0.16 92 1014.9
20260831221704 85 57 3.0 6.0 0.00 0.16 0.16 92 1014.9
20260831221203 85 50 4.0 8.0 0.00 0.16 0.16 91 1014.9
20260831220704 85 44 5.0 8.0 0.00 0.16 0.16 91 1014.9
20260831220205 85 66 5.0 8.0 0.00 0.16 0.16 92 1014.9
20260831214703 85 28 4.0 6.0 0.00 0.16 0.16 90 1014.9
20260831214204 85 55 3.0 6.0 0.00 0.16 0.16 89 1014.9
20260831213704 85 72 6.0 8.0 0.00 0.16 0.16 88 1014.9
20260831213204 85 65 7.0 10.0 0.00 0.16 0.16 87 1014.9
20260831211704 86 49 6.0 8.0 0.00 0.16 0.16 86 1014.9
20260831211205 86 61 6.0 8.0 0.00 0.16 0.16 85 1014.9
20260831210703 86 56 6.0 10.0 0.00 0.16 0.16 83 1014.9
20260831210204 87 79 5.0 8.0 0.00 0.16 0.16 84 1014.9
20260831204704 86 53 3.0 6.0 0.00 0.16 0.16 88 1014.9
20260831204205 86 78 3.0 8.0 0.00 0.16 0.16 85 1014.9
20260831200704 86 34 5.0 8.0 0.00 0.16 0.16 91 1014.9
20260831200204 86 57 3.0 9.0 0.04 0.16 0.16 92 1014.9
20260831194704 85 45 5.0 8.0 0.16 0.16 0.16 94 1014.9
20260831194204 85 29 3.0 6.0 0.16 0.16 0.16 96 1014.9
20260831193204 85 48 2.0 3.0 0.16 0.16 0.16 99 1015.9
20260831191704 84 339 4.0 7.0 0.16 0.16 0.16 97 1015.9
20260831191204 85 338 3.0 6.0 0.16 0.16 0.16 97 1015.9
20260831190704 85 304 3.0 6.0 0.16 0.16 0.16 96 1015.9
20260831190204 85 299 3.0 8.0 0.12 0.12 0.12 96 1015.9
20260831184704 86 326 4.0 6.0 0.00 0.00 0.00 89 1015.9
20260831183203 86 330 5.0 8.0 0.00 0.00 0.00 88 1015.9
20260831181704 86 277 5.0 7.0 0.00 0.00 0.00 88 1015.9
20260831181204 86 299 5.0 6.0 0.00 0.00 0.00 90 1015.9
20260831180703 86 286 3.0 3.0 0.00 0.00 0.00 92 1015.9
20260831174704 85 339 2.0 3.0 0.00 0.00 0.00 93 1015.9
20260831174204 85 335 3.0 6.0 0.00 0.00 0.00 93 1015.9
20260831173703 85 337 3.0 5.0 0.00 0.00 0.00 94 1015.9
20260831173204 85 276 2.0 6.0 0.00 0.00 0.00 95 1015.9
20260831171204 85 245 3.0 5.0 0.00 0.00 0.00 96 1015.9
20260831170703 85 232 4.0 6.0 0.00 0.00 0.00 94 1015.9
20260831170203 85 228 3.0 8.0 0.00 0.00 0.00 90 1015.9
20260831164703 85 225 5.0 9.0 0.00 0.00 0.00 88 1016.9
20260831163204 86 209 8.0 13.0 0.00 0.00 0.00 87 1016.9
20260831161704 87 52 5.0 8.0 0.00 0.00 0.00 87 1016.9
20260831161203 87 34 6.0 9.0 0.00 0.00 0.00 88 1016.9
20260831160704 87 45 5.0 8.0 0.00 0.00 0.00 86 1016.9
20260831160204 87 80 4.0 8.0 0.00 0.00 0.00 89 1016.9
20260831154704 87 77 6.0 8.0 0.00 0.00 0.00 87 1016.9
20260831154204 87 108 5.0 8.0 0.00 0.00 0.00 87 1016.9
20260831153704 87 97 5.0 8.0 0.00 0.00 0.00 88 1016.9
20260831151705 87 96 6.0 10.0 0.00 0.00 0.00 86 1016.9
20260831151204 87 113 5.0 9.0 0.00 0.00 0.00 88 1016.9
20260831150704 86 96 5.0 8.0 0.00 0.00 0.00 88 1016.9
20260831150203 86 104 6.0 8.0 0.00 0.00 0.00 87 1016.9
20260831144204 85 65 5.0 6.0 0.00 0.00 0.00 91 1016.9
20260831143204 85 78 5.0 7.0 0.00 0.00 0.00 89 1016.9
20260831141704 86 89 3.0 6.0 0.00 0.00 0.00 89 1015.9
20260831141204 86 85 3.0 6.0 0.00 0.00 0.00 87 1015.9
20260831140704 86 46 0.0 3.0 0.00 0.08 0.00 89 1015.9
20260831140203 86 87 4.0 6.0 0.00 0.12 0.00 89 1015.9
20260831134203 85 100 2.0 3.0 0.00 0.12 0.00 92 1015.9
20260831133704 84 81 1.0 3.0 0.00 0.12 0.00 94 1015.9
20260831131704 83 80 2.0 3.0 0.00 0.12 0.00 100 1015.9
20260831131204 82 77 1.0 3.0 0.00 0.12 0.00 100 1015.9
20260831130703 82 73 3.0 3.0 0.00 0.12 0.00 100 1015.9
20260831130204 82 60 3.0 3.0 0.00 0.12 0.00 100 1015.9
20260831124703 81 62 2.0 3.0 0.00 0.12 0.00 100 1015.9
20260831123703 81 84 0.0 0.0 0.00 0.12 0.00 100 1015.9
20260831121703 79 314 0.0 0.0 0.00 0.12 0.00 100 1015.9
20260831121204 79 314 0.0 0.0 0.00 0.12 0.00 100 1015.9
20260831120704 78 315 0.0 0.0 0.00 0.12 0.00 100 1015.9
20260831120203 78 315 0.0 0.0 0.00 0.12 0.00 100 1014.9
20260831114704 77 315 0.0 0.0 0.00 0.12 0.00 100 1014.9
20260831114205 77 315 0.0 0.0 0.00 0.12 0.00 100 1014.9
20260831113704 77 275 0.0 0.0 0.00 0.12 0.00 100 1014.9
20260831113204 77 278 0.0 0.0 0.00 0.12 0.00 100 1014.9
20260831111704 77 332 0.0 0.0 0.00 0.12 0.00 100 1014.9
20260831111203 77 339 0.0 0.0 0.00 0.12 0.00 100 1014.9
20260831110703 77 339 0.0 0.0 0.00 0.12 0.00 100 1014.9
20260831110204 77 339 0.0 0.0 0.00 0.12 0.00 100 1014.9
20260831104705 77 339 0.0 0.0 0.00 0.12 0.00 100 1014.9
20260831103704 77 339 0.0 0.0 0.00 0.12 0.00 100 1014.9
20260831103203 77 339 0.0 0.0 0.00 0.12 0.00 100 1014.9
20260831101703 77 337 0.0 0.0 0.00 0.12 0.00 100 1013.9
20260831101204 77 337 1.0 3.0 0.00 0.12 0.00 100 1013.9
20260831100703 77 329 3.0 3.0 0.00 0.12 0.00 100 1013.9
20260831100203 77 330 2.0 3.0 0.00 0.12 0.00 100 1013.9
20260831094704 77 0 0.0 0.0 0.00 0.12 0.00 100 1013.9
20260831094204 77 0 0.0 0.0 0.00 0.12 0.00 100 1013.9
20260831093705 77 0 0.0 0.0 0.00 0.12 0.00 100 1013.9
20260831093203 77 0 0.0 3.0 0.00 0.12 0.00 100 1013.9
20260831091704 77 344 0.0 3.0 0.00 0.12 0.00 100 1014.8
20260831091203 78 344 1.0 3.0 0.00 0.12 0.00 100 1014.9
20260831090704 78 357 1.0 3.0 0.00 0.12 0.00 100 1014.9
20260831090204 78 353 2.0 3.0 0.00 0.12 0.00 100 1014.9
20260831084704 78 113 0.0 0.0 0.00 0.12 0.00 100 1014.9
20260831084204 78 113 0.0 0.0 0.00 0.12 0.00 100 1014.9
20260831083704 78 113 0.0 0.0 0.00 0.12 0.00 100 1014.9
20260831083203 78 113 0.0 0.0 0.00 0.12 0.00 100 1014.9
20260831081704 78 113 0.0 0.0 0.00 0.12 0.00 100 1014.9
20260831081204 78 113 0.0 0.0 0.00 0.12 0.00 100 1014.9
20260831080204 78 113 0.0 0.0 0.00 0.12 0.00 100 1014.9
20260831074703 78 113 0.0 0.0 0.00 0.12 0.00 100 1014.9
20260831074204 78 113 0.0 0.0 0.00 0.12 0.00 100 1014.9
20260831073703 78 113 0.0 2.0 0.00 0.12 0.00 100 1014.9
20260831071703 78 80 3.0 3.0 0.00 0.12 0.00 100 1014.9
20260831071204 78 90 3.0 3.0 0.00 0.12 0.00 100 1014.9
20260831070703 78 107 0.0 3.0 0.00 0.12 0.00 100 1014.9
20260831070204 78 95 2.0 6.0 0.00 0.12 0.00 100 1014.9
20260831064703 78 63 3.0 6.0 0.00 0.12 0.00 100 1014.9
20260831064204 78 62 2.0 3.0 0.00 0.12 0.00 100 1014.9
20260831063703 79 357 0.0 0.0 0.00 0.12 0.00 100 1014.9
20260831063203 79 357 0.0 0.0 0.00 0.12 0.00 100 1014.9
20260831061203 79 357 0.0 0.0 0.00 0.12 0.00 100 1015.9
20260831060704 79 357 0.0 0.0 0.00 0.12 0.00 100 1015.9
20260831060203 79 357 0.0 0.0 0.00 0.12 0.00 100 1015.9
20260831054704 79 353 0.0 0.0 0.00 0.12 0.00 100 1015.9
20260831053704 79 353 0.0 0.0 0.00 0.12 0.00 100 1015.9
20260831053204 79 356 0.0 3.0 0.00 0.12 0.00 100 1015.9
20260831051704 79 91 0.0 0.0 0.00 0.12 0.00 100 1015.9
20260831051204 79 91 0.0 0.0 0.00 0.12 0.00 100 1015.9
20260831050203 80 233 0.0 0.0 0.00 0.12 0.00 100 1015.9
20260831044703 80 233 0.0 0.0 0.00 0.12 0.00 100 1015.9
20260831044203 80 233 0.0 0.0 0.00 0.12 0.00 99 1015.9
20260831043704 80 233 0.0 0.0 0.00 0.12 0.00 99 1015.9
20260831043204 80 233 0.0 0.0 0.00 0.12 0.00 99 1015.9